Location: Schommer Observatory
(40.5200°N, 74.4500°W)
Time: 03:02:10
(UTC-04:00)

N. Korean satellite - Visible Passes

Search period start: 21 September 2017 00:00
Search period end: 01 October 2017 00:00
Orbit: 461 x 515 km, 97.2° (Epoch: 20 September)

Date Brightness Start Highest point End Pass type
(mag) Time Alt. Az. Time Alt. Az. Time Alt. Az.
22 Sep 10.0 20:10:28 10° WSW 20:12:23 13° W 20:14:18 10° WNW visible
23 Sep 9.2 19:45:53 10° SSW 19:49:01 25° W 19:52:10 10° NW visible
24 Sep 7.8 19:22:06 10° S 19:25:45 49° W 19:29:22 10° NNW visible
26 Sep 10.0 20:11:15 10° WSW 20:13:03 13° W 20:14:50 10° WNW visible
27 Sep 9.2 19:46:36 10° SSW 19:49:40 24° W 19:52:45 10° NW visible
28 Sep 7.8 19:22:46 10° S 19:26:22 48° W 19:29:58 10° NNW visible
30 Sep 10.1 20:12:02 10° WSW 20:13:40 12° W 20:15:18 10° WNW visible
